FGSL

Malabo

Airport
ICAO code
FGSL
IATA Code
SSG
Summary
ICAO Region
AFI
ICAO Territory
Location

Punta Europa, Bioko Island, Bioko Island

Serving
Malabo
Elevation
76 ft
Coordinates
3° 45' 19" N , 8° 42' 31" E
KCC
Metar
Observation
FGSL 311800Z 25006KT 9999 FEW012 28/24 Q1010 NOSIG
Station
Malabo/Fernando Poo
Date/Time
2023-01-31 18:00:00
Wind direction
250°
Wind speed
06 kts
Lowest cloud amount
few clouds
Temperature
28°C
Dew point
24°C
Humidity
78%
QNH
1010 hPa
Weather condition
n/a

Malabo Airport or Saint Isabel Airport is an airport located at Punta Europa, Bioko Island, Equatorial Guinea.

Climatology

Tropical Monsoon climate (Köppen climate classification Am)

Runways

Designator Length Width Surface Rops
5/23 2940 46 CON Yes/Yes

Airport map

Aerial View

SKYbrary Partners:

Safety knowledge contributed by: